Disclaimer

Please do not use the information listed here in-flight or in-navigation, as they are not provided to us by the airports but are provided by volunteers, so they might be outdated.

Search


Regions


Airport information page

Radio informations:
Tower (TWR) - 134.5 MHz

Airport informations:
Latitude: 50° 02' 11.75" N
Longitude: 082° 29' 39.07" E
Elevation: 939 feet - 286 meters
Operating hours: N/A
Operating agency: Civil government, landing fees and diplomatic clearance may be required
Timezone: UTC+6(+7DT)
Fuel: N/A

Runway information:
12/30 - 8234 x 138 feet< - >2510 x 42 meters
12L/30R - 6088 x 200 feet< - >1856 x 61 meters

Recent METARs:
UASK 171430Z 01002MPS 330V040 0100 R12/0500 FZFG BKN003 M15/M16 Q1032 R12/590538 TEMPO 0200 FZFG VV001 RMK QBB110 QFE748/0998
UASK 171500Z VRB01MPS 0100 R12/0450 FZFG BKN002 M14/M15 Q1032 R12/590538 TEMPO 0200 FZFG VV001 RMK QBB070 QFE748/0998
UASK 171530Z 32001MPS 0250 R12/0800 FZFG BKN004 M13/M14 Q1032 R12/590538 TEMPO 0200 FZFG VV001 RMK QBB140 QFE748/0998

Airport on the map: